CGXMF CYXU-CYXU

Flight info

Callsign CGXMF
Flight time 0h 2m
Altitude 1900
Route VFR CIRCUITS
Aircraft C152

Departure

Time 2026-05-08 01:14
Airport London International Airport (CYXU)

Arrival

Time 2026-05-08 01:17
Airport London International Airport (CYXU)
Time Latitude Longitude Altitude Speed Heading
2026-05-08 01:03 43.03566 -81.16272 905 ft 0 kts 73°
2026-05-08 01:04 43.03566 -81.16271 905 ft 0 kts 73°
2026-05-08 01:05 43.03581 -81.16239 904 ft 14 kts 40°
2026-05-08 01:06 43.03659 -81.16058 902 ft 28 kts 81°
2026-05-08 01:06 43.03690 -81.15871 900 ft 33 kts 82°
2026-05-08 01:06 43.03609 -81.15578 898 ft 36 kts 137°
2026-05-08 01:06 43.03420 -81.15351 901 ft 35 kts 136°
2026-05-08 01:07 43.03242 -81.15138 899 ft 34 kts 137°
2026-05-08 01:07 43.03067 -81.14922 896 ft 32 kts 140°
2026-05-08 01:07 43.02914 -81.14744 896 ft 18 kts 135°
2026-05-08 01:07 43.02918 -81.14613 896 ft 20 kts 45°
2026-05-08 01:08 43.03030 -81.14566 899 ft 4 kts 317°
2026-05-08 01:08 43.03031 -81.14567 898 ft 0 kts 316°
2026-05-08 01:08 43.03054 -81.14598 898 ft 24 kts 317°
2026-05-08 01:08 43.03304 -81.14892 941 ft 63 kts 316°
2026-05-08 01:09 43.03675 -81.15348 1044 ft 77 kts 322°
2026-05-08 01:09 43.04172 -81.15640 1188 ft 83 kts 359°
2026-05-08 01:09 43.04760 -81.15320 1221 ft 99 kts 24°
2026-05-08 01:09 43.05323 -81.14709 1191 ft 108 kts 45°
2026-05-08 01:10 43.05334 -81.13814 1163 ft 106 kts 141°
2026-05-08 01:10 43.04727 -81.13334 1178 ft 98 kts 137°
2026-05-08 01:10 43.04200 -81.12773 1143 ft 104 kts 149°
2026-05-08 01:10 43.03577 -81.12352 1194 ft 96 kts 161°
2026-05-08 01:11 43.02985 -81.11988 1283 ft 91 kts 151°
2026-05-08 01:11 43.02522 -81.11430 1362 ft 89 kts 133°
2026-05-08 01:11 43.02084 -81.10816 1386 ft 92 kts 136°
2026-05-08 01:11 43.01478 -81.10792 1340 ft 92 kts 219°
2026-05-08 01:12 43.01295 -81.11571 1332 ft 87 kts 268°
2026-05-08 01:12 43.01371 -81.12359 1324 ft 80 kts 291°
2026-05-08 01:12 43.01672 -81.12978 1246 ft 81 kts 317°
2026-05-08 01:12 43.02119 -81.13510 1075 ft 88 kts 321°
2026-05-08 01:13 43.02596 -81.14063 906 ft 86 kts 319°
2026-05-08 01:13 43.02959 -81.14502 906 ft 76 kts 318°
2026-05-08 01:13 43.03416 -81.15036 982 ft 91 kts 323°
2026-05-08 01:13 43.03883 -81.15587 1141 ft 89 kts 319°
2026-05-08 01:14 43.04456 -81.15763 1259 ft 87 kts 13°
2026-05-08 01:14 43.05004 -81.15414 1346 ft 86 kts 31°
2026-05-08 01:14 43.05399 -81.14846 1549 ft 76 kts 70°
2026-05-08 01:14 43.05220 -81.14178 1634 ft 87 kts 142°
2026-05-08 01:15 43.04718 -81.13612 1617 ft 98 kts 145°
2026-05-08 01:15 43.04145 -81.13053 1567 ft 103 kts 147°
2026-05-08 01:15 43.03533 -81.12515 1507 ft 106 kts 151°
2026-05-08 01:15 43.02877 -81.12064 1466 ft 103 kts 162°
2026-05-08 01:16 43.02209 -81.11997 1365 ft 100 kts 219°
2026-05-08 01:16 43.02025 -81.12815 1229 ft 79 kts 275°
2026-05-08 01:16 43.02182 -81.13534 1069 ft 81 kts 307°
2026-05-08 01:16 43.02544 -81.13987 894 ft 58 kts 319°
2026-05-08 01:17 43.02738 -81.14226 899 ft 24 kts 314°
2026-05-08 01:17 43.02859 -81.14390 900 ft 30 kts 317°
2026-05-08 01:17 43.02941 -81.14576 897 ft 13 kts 232°
2026-05-08 01:17 43.02925 -81.14604 897 ft 0 kts 229°
2026-05-08 01:19 43.02883 -81.14698 897 ft 18 kts 287°
2026-05-08 01:19 43.02992 -81.14850 894 ft 27 kts 315°
2026-05-08 01:19 43.03149 -81.15026 897 ft 26 kts 320°
2026-05-08 01:19 43.03273 -81.15182 901 ft 26 kts 316°
2026-05-08 01:20 43.03426 -81.15361 901 ft 30 kts 317°
2026-05-08 01:20 43.03572 -81.15534 898 ft 20 kts 314°
2026-05-08 01:20 43.03638 -81.15616 899 ft 15 kts 323°
2026-05-08 01:20 43.03700 -81.15762 898 ft 22 kts 263°
2026-05-08 01:21 43.03673 -81.15949 901 ft 17 kts 261°
2026-05-08 01:21 43.03648 -81.16098 902 ft 15 kts 256°
2026-05-08 01:21 43.03602 -81.16177 903 ft 10 kts 176°
2026-05-08 01:21 43.03553 -81.16174 903 ft 5 kts 214°
2026-05-08 01:22 43.03555 -81.16195 904 ft 0 kts 286°